Regional Weather Roundup
Issued by NWS Huntsville, AL

Home | Current Version | Previous Version | Text Only | Print | Product List | Glossary On
Versions: 1 2 3 4 5 6 7 8 9 10 11 12 13 14 15 16 17 18 19 20 21 22 23 24 25 26 27 28
000
ASUS44 KHUN 272310
RWRHUN

WEATHER ROUNDUP FOR THE TENNESSEE VALLEY
NATIONAL WEATHER SERVICE HUNTSVILLE AL
600 PM CDT THU APR 27 2017

ALZ001>004-280000-
NORTHWEST ALABAMA

CITY           SKY/WX    TMP DP  RH WIND       PRES   REMARKS
COURTLAND HCN    N/A     70 N/A N/A W6          N/A
RUSSELLVILLE     N/A     68 N/A N/A MISG        N/A
SHOALS AIRPORT SUNNY     70  50  49 CALM      29.84S
SHOALS TVA RES   N/A     68 N/A N/A MISG        N/A
$$

ALZ005>007-016-280000-
NORTH CENTRAL ALABAMA

CITY           SKY/WX    TMP DP  RH WIND       PRES   REMARKS
CULLMAN AG STN   N/A     73 N/A N/A W6          N/A
DECATUR AP     SUNNY     72  57  59 NW7       29.83S
HUNTSVILLE AP  MOSUNNY   74  57  55 NW8       29.83S
MERIDIANVILLE  SUNNY     72  52  49 CALM      29.84S
REDSTONE ARSN  SUNNY     72  56  57 W7        29.83R
VINEMONT AP    FAIR      74  52  46 CALM      29.86S
$$

ALZ008>010-280000-
NORTHEAST ALABAMA

CITY           SKY/WX    TMP DP  RH WIND       PRES   REMARKS
ALBERTVILLE    MOSUNNY   75  61  60 W8        29.83S
FORT PAYNE     SUNNY     73  50  43 W8        29.82S
SCOTTSBORO AP  SUNNY     75  57  53 NW7       29.83R
SCOTTSBORO HCN   N/A     75 N/A N/A MISG        N/A
VALLEY HEAD      N/A     73 N/A N/A MISG        N/A
$$

TNZ076-096-097-280000-
SOUTHEASTERN MIDDLE TENNESSEE

CITY           SKY/WX    TMP DP  RH WIND       PRES   REMARKS
TULLAHOMA      SUNNY     72  50  46 W5        29.85R
WINCHESTER     SUNNY     72  54  53 VRB6      29.85R
$$

...SURROUNDING SITES...

CITY           SKY/WX    TMP DP  RH WIND       PRES   REMARKS
ATLANTA        PTSUNNY   78  69  73 S8        29.82R
ANNISTON       SUNNY     79  56  45 W9        29.82S
BIRMINGHAM     MOSUNNY   78  54  43 W8        29.84S
CHATTANOOGA    MOSUNNY   78  53  41 SW8       29.81R
CORINTH        FAIR      68  50  52 S6        29.82F
DALTON         SUNNY     77  59  53 CALM      29.82R
GADSDEN        SUNNY    N/A N/A N/A W7        29.82S
GOLDEN TRNGL   SUNNY     72  54  53 CALM      29.78F
HALEYVILLE     FAIR      70  54  56 S5        29.86S
JACKSON TN     SUNNY     67  50  54 CALM      29.82S
MEMPHIS        MOSUNNY   68  49  50 VRB3      29.80S
NASHVILLE      PTSUNNY   69  49  48 W7        29.84R
OXFORD MS      FAIR      68  52  56 SE6       29.83S
ROME           SUNNY     79  56  45 W8        29.81R
SAVANNAH       SUNNY     66  52  59 CALM      29.82F
TUPELO         SUNNY     69  51  52 S3        29.82F
TUSCALOOSA     SUNNY     75  57  53 W6        29.82S
$$

...GULF COAST WEATHER...

CITY           SKY/WX    TMP DP  RH WIND       PRES   REMARKS
GULFPORT       SUNNY     80  64  58 S7        29.78R
PASCAGOULA     SUNNY     78  64  61 VRB6      29.79S
MOBILE         MOSUNNY   82  66  58 S13       29.79S
GULF SHORES    CLOUDY    77  76  96 S8        29.81S
PENSACOLA      CLOUDY    78  73  84 S10       29.81S
DESTIN         CLOUDY    79  79 100 S8        29.83S
PANAMA CITY    CLOUDY    78  73  85 S13       29.87S
APPALACHICOLA  PTSUNNY   78  76  93 S10       29.88S
$$





USA.gov is the U.S. government's official web portal to all federal, state and local government web resources and services.